Location: *
(43.0409°N, 0.1694°E)
Time: 22:36:57
(UTC+00:00)

Cosmos 1666 Rocket - Pass Details

Date: 03 October 2023
Orbit: 601 x 630 km, 82.5° (Epoch: 05 December)

Event Time Altitude Azimuth Distance (km) Brightness Sun altitude
Rises 04:24:01 0° 353° (N) 2,899 7.1 -18.0°
Reaches altitude 10° 04:26:16 10° 356° (N) 1,984 6.2 -17.6°
Maximum altitude 04:30:39 73° 81° (E) 644 3.8 -16.8°
Drops below altitude 10° 04:34:58 10° 166° (SSE) 1,951 6.2 -16.0°
Sets 04:37:10 0° 168° (SSE) 2,846 7.0 -15.6°
